When you browse on this site, cookies collect data to enhance your experience and personalize the content and advertising you see.
Visit our Privacy Policy to learn more. By continuing to use the site, you agree to this use of cookies and data.
  • en Suisse
  • Liste des pays
  • À 7 jours
  • Température de l'eau
  • Carte satellitaire
  • Carte météo
  • Widgets météo
  • user-avatar
    Se connecter

    Météo par heure à Tomakhivka

    Ce jour, 17 Juillet, Mercredi

    Heure Température Précipitation Vent Pression Humidité
    00:00 +15°C° 0 mm 1 m/s 743 mmHg 95%
    01:00 +15°C° 0 mm 1 m/s 743 mmHg 96%
    02:00 +15°C° 0 mm 1 m/s 743 mmHg 96%
    03:00 +15°C° 0 mm 1 m/s 743 mmHg 96%
    04:00 +14°C° 0 mm 0 m/s 743 mmHg 95%
    05:00 +15°C° 0 mm 0 m/s 743 mmHg 95%
    06:00 +16°C° 0 mm 0 m/s 743 mmHg 89%
    07:00 +18°C° 0 mm 0 m/s 743 mmHg 83%
    08:00 +19°C° 0 mm 0 m/s 743 mmHg 78%
    09:00 +22°C° 0.1 mm 1 m/s 743 mmHg 72%
    10:00 +23°C° 0.1 mm 1 m/s 743 mmHg 66%
    11:00 +25°C° 0.1 mm 2 m/s 743 mmHg 60%
    12:00 +25°C° 0.7 mm 3 m/s 743 mmHg 60%
    13:00 +25°C° 0.7 mm 3 m/s 743 mmHg 60%
    14:00 +25°C° 0.7 mm 4 m/s 742 mmHg 60%
    15:00 +25°C° 0.2 mm 4 m/s 742 mmHg 61%
    16:00 +25°C° 0.2 mm 4 m/s 742 mmHg 62%
    17:00 +25°C° 0.2 mm 3 m/s 742 mmHg 62%
    18:00 +22°C° 0 mm 3 m/s 743 mmHg 68%
    19:00 +20°C° 0 mm 2 m/s 743 mmHg 73%
    20:00 +18°C° 0 mm 2 m/s 743 mmHg 78%
    21:00 +18°C° 0 mm 2 m/s 743 mmHg 80%
    22:00 +17°C° 0 mm 2 m/s 743 mmHg 82%
    23:00 +16°C° 0 mm 2 m/s 743 mmHg 84%

    Demain, 18 Juillet, Jeudi

    Heure Température Précipitation Vent Pression Humidité
    00:00 +16°C° 0 mm 1 m/s 743 mmHg 86%
    01:00 +15°C° 0 mm 1 m/s 743 mmHg 87%
    02:00 +15°C° 0 mm 1 m/s 743 mmHg 88%
    03:00 +15°C° 0 mm 1 m/s 743 mmHg 87%
    04:00 +16°C° 0 mm 1 m/s 743 mmHg 87%
    05:00 +16°C° 0 mm 1 m/s 744 mmHg 86%
    06:00 +18°C° 0 mm 2 m/s 744 mmHg 79%
    07:00 +19°C° 0 mm 2 m/s 744 mmHg 72%
    08:00 +21°C° 0 mm 3 m/s 744 mmHg 65%
    09:00 +22°C° 0 mm 4 m/s 744 mmHg 62%
    10:00 +23°C° 0 mm 4 m/s 744 mmHg 59%
    11:00 +25°C° 0 mm 5 m/s 744 mmHg 56%
    12:00 +25°C° 0.1 mm 5 m/s 744 mmHg 54%
    13:00 +26°C° 0.1 mm 5 m/s 744 mmHg 52%
    14:00 +26°C° 0.1 mm 5 m/s 744 mmHg 51%
    15:00 +25°C° 0 mm 5 m/s 745 mmHg 53%
    16:00 +25°C° 0 mm 4 m/s 745 mmHg 56%
    17:00 +23°C° 0 mm 4 m/s 745 mmHg 58%
    18:00 +22°C° 0 mm 3 m/s 745 mmHg 63%
    19:00 +20°C° 0 mm 2 m/s 745 mmHg 68%
    20:00 +18°C° 0 mm 2 m/s 746 mmHg 74%
    21:00 +17°C° 0 mm 2 m/s 746 mmHg 74%
    22:00 +17°C° 0 mm 2 m/s 746 mmHg 75%
    23:00 +16°C° 0 mm 1 m/s 747 mmHg 76%

    Après-demain, 19 Juillet, Vendredi

    Heure Température Précipitation Vent Pression Humidité
    00:00 +16°C° 0 mm 2 m/s 747 mmHg 78%
    01:00 +15°C° 0 mm 2 m/s 747 mmHg 79%
    02:00 +15°C° 0 mm 2 m/s 747 mmHg 81%
    03:00 +15°C° 0 mm 2 m/s 747 mmHg 82%
    04:00 +15°C° 0 mm 2 m/s 747 mmHg 83%
    05:00 +15°C° 0 mm 2 m/s 748 mmHg 84%
    06:00 +17°C° 0 mm 2 m/s 748 mmHg 79%
    07:00 +19°C° 0 mm 3 m/s 748 mmHg 73%
    08:00 +21°C° 0 mm 3 m/s 748 mmHg 67%
    09:00 +22°C° 0 mm 3 m/s 748 mmHg 63%
    10:00 +23°C° 0 mm 4 m/s 748 mmHg 59%
    11:00 +25°C° 0 mm 4 m/s 748 mmHg 55%
    12:00 +26°C° 0 mm 4 m/s 748 mmHg 54%
    13:00 +26°C° 0 mm 4 m/s 748 mmHg 54%
    14:00 +26°C° 0 mm 4 m/s 748 mmHg 54%
    15:00 +26°C° 0.1 mm 4 m/s 748 mmHg 57%
    16:00 +25°C° 0.1 mm 4 m/s 748 mmHg 60%
    17:00 +25°C° 0.1 mm 4 m/s 748 mmHg 63%
    18:00 +22°C° 0.1 mm 3 m/s 749 mmHg 69%
    19:00 +21°C° 0.1 mm 3 m/s 749 mmHg 75%
    20:00 +19°C° 0.1 mm 2 m/s 749 mmHg 81%
    21:00 +18°C° 0 mm 2 m/s 750 mmHg 83%
    22:00 +18°C° 0 mm 2 m/s 750 mmHg 85%
    23:00 +17°C° 0 mm 2 m/s 750 mmHg 87%

    20 Juillet, Samedi

    Heure Température Précipitation Vent Pression Humidité
    00:00 +17°C° 0 mm 2 m/s 750 mmHg 88%
    01:00 +16°C° 0 mm 2 m/s 750 mmHg 89%
    02:00 +16°C° 0 mm 2 m/s 750 mmHg 91%
    03:00 +16°C° 0 mm 2 m/s 751 mmHg 90%
    04:00 +16°C° 0 mm 1 m/s 751 mmHg 90%
    05:00 +18°C° 0 mm 1 m/s 751 mmHg 90%
    06:00 +19°C° 0 mm 1 m/s 751 mmHg 82%
    07:00 +20°C° 0 mm 2 m/s 751 mmHg 75%
    08:00 +23°C° 0 mm 2 m/s 752 mmHg 67%
    09:00 +24°C° 0 mm 2 m/s 752 mmHg 61%
    10:00 +26°C° 0 mm 2 m/s 752 mmHg 54%
    11:00 +27°C° 0 mm 2 m/s 752 mmHg 48%
    12:00 +27°C° 0 mm 2 m/s 752 mmHg 46%
    13:00 +28°C° 0 mm 2 m/s 752 mmHg 45%
    14:00 +28°C° 0 mm 2 m/s 752 mmHg 43%
    15:00 +28°C° 0 mm 2 m/s 752 mmHg 47%
    16:00 +28°C° 0 mm 2 m/s 752 mmHg 50%
    17:00 +27°C° 0 mm 2 m/s 752 mmHg 54%
    18:00 +25°C° 0 mm 2 m/s 752 mmHg 58%
    19:00 +23°C° 0 mm 2 m/s 752 mmHg 63%
    20:00 +22°C° 0 mm 1 m/s 752 mmHg 68%
    21:00 +21°C° 0 mm 1 m/s 752 mmHg 70%
    22:00 +20°C° 0 mm 1 m/s 752 mmHg 73%
    23:00 +18°C° 0 mm 0 m/s 752 mmHg 76%

    21 Juillet, Dimanche

    Heure Température Précipitation Vent Pression Humidité
    00:00 +17°C° 0 mm 0 m/s 752 mmHg 77%
    01:00 +17°C° 0 mm 0 m/s 752 mmHg 78%
    02:00 +17°C° 0 mm 0 m/s 752 mmHg 80%
    03:00 +17°C° 0 mm 0 m/s 752 mmHg 79%
    04:00 +17°C° 0 mm 0 m/s 752 mmHg 78%
    05:00 +18°C° 0 mm 0 m/s 752 mmHg 78%
    06:00 +19°C° 0 mm 0 m/s 752 mmHg 72%
    07:00 +21°C° 0 mm 0 m/s 752 mmHg 66%
    08:00 +25°C° 0 mm 1 m/s 752 mmHg 60%
    09:00 +26°C° 0 mm 1 m/s 752 mmHg 57%
    10:00 +27°C° 0 mm 1 m/s 752 mmHg 53%
    11:00 +28°C° 0 mm 1 m/s 752 mmHg 50%
    12:00 +28°C° 0.6 mm 1 m/s 752 mmHg 51%
    13:00 +28°C° 0.6 mm 1 m/s 752 mmHg 52%
    14:00 +28°C° 0.6 mm 2 m/s 751 mmHg 53%
    15:00 +28°C° 0 mm 1 m/s 751 mmHg 55%
    16:00 +27°C° 0 mm 1 m/s 751 mmHg 58%
    17:00 +27°C° 0 mm 1 m/s 751 mmHg 61%
    18:00 +25°C° 0.3 mm 1 m/s 751 mmHg 66%
    19:00 +24°C° 0.3 mm 1 m/s 751 mmHg 71%
    20:00 +22°C° 0.3 mm 1 m/s 751 mmHg 77%
    21:00 +21°C° 0.2 mm 1 m/s 751 mmHg 79%
    22:00 +19°C° 0.2 mm 0 m/s 751 mmHg 81%
    23:00 +18°C° 0.2 mm 0 m/s 751 mmHg 83%

    22 Juillet, Lundi

    Heure Température Précipitation Vent Pression Humidité
    00:00 +18°C° 0 mm 0 m/s 751 mmHg 84%
    01:00 +18°C° 0 mm 0 m/s 751 mmHg 85%
    02:00 +17°C° 0 mm 0 m/s 751 mmHg 85%
    03:00 +20°C° 0 mm 1 m/s 751 mmHg 85%
    04:00 +20°C° 0 mm 1 m/s 751 mmHg 84%
    05:00 +20°C° 0 mm 1 m/s 752 mmHg 84%
    06:00 +22°C° 0 mm 1 m/s 752 mmHg 78%
    07:00 +23°C° 0 mm 1 m/s 752 mmHg 73%
    08:00 +25°C° 0 mm 1 m/s 752 mmHg 68%
    09:00 +26°C° 0 mm 2 m/s 752 mmHg 62%
    10:00 +27°C° 0 mm 2 m/s 752 mmHg 57%
    11:00 +28°C° 0 mm 2 m/s 752 mmHg 51%
    12:00 +28°C° 0 mm 2 m/s 751 mmHg 50%
    13:00 +29°C° 0 mm 2 m/s 751 mmHg 48%
    14:00 +29°C° 0 mm 2 m/s 751 mmHg 46%
    15:00 +29°C° 0 mm 2 m/s 751 mmHg 49%
    16:00 +28°C° 0 mm 2 m/s 751 mmHg 52%
    17:00 +28°C° 0 mm 2 m/s 750 mmHg 55%
    18:00 +26°C° 0 mm 2 m/s 750 mmHg 59%
    19:00 +25°C° 0 mm 2 m/s 750 mmHg 64%
    20:00 +23°C° 0 mm 2 m/s 750 mmHg 68%
    21:00 +21°C° 0 mm 2 m/s 750 mmHg 69%
    22:00 +21°C° 0 mm 2 m/s 750 mmHg 70%
    23:00 +20°C° 0 mm 2 m/s 750 mmHg 71%
    Voir plus